{"data":{"norad_id":57635,"intl_designator":"2023-122D","name":"STARLINK-30329","alt_names":[],"object_type":"PAYLOAD","status":"ACTIVE","operator":null,"country":"US","launch_date":"2023-08-17","launch_site_code":"AFETR","launch_vehicle":null,"mission":null,"orbit_class":"UNKNOWN","rcs_meters":null,"size_class":null,"mass_kg":null,"dimensions":null,"purposes":["comms"],"wikipedia_slug":null,"has_3d_model":false,"image_url":null,"decayed_at":null,"tle_current":{"epoch":"2026-09-19T21:18:54.852768Z","epoch_age_seconds":180545,"freshness":"STALE","line1":"1 57635U 23122D   26262.88813487  .00001451  00000+0  62218-4 0  9994","line2":"2 57635  43.0028  76.0670 0001250 274.1968  85.8741 15.27587559171901","mean_motion":15.27587559,"eccentricity":0.000125,"inclination_deg":43.0028,"raan_deg":76.067,"arg_perigee_deg":274.1968,"mean_anomaly_deg":85.8741,"bstar":6.2218e-5,"rev_number":17190,"period_min":94.266282251124,"perigee_km":482.16881633493,"apogee_km":483.88410720037,"semimajor_km":6861.1634617677,"source":"CELESTRAK","updated_at":"2026-09-21T09:00:33.665547Z"}}}